Raton, NM

10:45 AM MDT on April 28, 2017 (GMT -0600)
Raton Municipal-Crews

Weather History for KRTN - February, 2014

Change the Weather History Date:

Wednesday, February 26, 2014

  Actual Average (KTAD) Record (KTAD)
Temperature  
Mean Temperature 37 °F -  
Max Temperature 57 °F 55 °F 77 °F (1986)
Min Temperature 17 °F 24 °F -9 °F (1960)
Degree Days  
Heating Degree Days 28    
Moisture  
Dew Point 13 °F    
Average Humidity 53    
Maximum Humidity 78    
Minimum Humidity 21    
Precipitation  
Precipitation 0.00 in - - ()
Sea Level Pressure  
Sea Level Pressure 30.06 in    
Wind  
Wind Speed 8 mph (East)    
Max Wind Speed 17 mph    
Max Gust Speed -    
Visibility 10 miles    
Events      
Averages and records for this station are not official NWS values.
T = Trace of Precipitation, MM = Missing Value Source: NWS Daily Summary

Daily Weather History Graph

Daily Weather History Graph

Search for Another Location

Airport or City:

Trip Planner

Search our weather history database for the weather conditions in past years. The results will help you decide how hot, cold, wet, or windy it might be!

Date:

Astronomy

Feb. 26, 2014 Rise Set
Actual Time 6:32 AM MST 5:49 PM MST
Civil Twilight 6:06 AM MST 6:15 PM MST
Nautical Twilight 5:36 AM MST 6:45 PM MST
Astronomical Twilight 5:06 AM MST 7:15 PM MST
Moon 4:17 AM MST (2/26) 3:09 PM MST (2/26)
Length of Visible Light 12h 09m
Length of Day
11h 16m
Waning Crescent, 9% of the Moon is Illuminated
Feb 26
Waning Crescent
Mar 1
New
Mar 8
First Quarter
Mar 16
Full
Mar 23
Last Quarter

Hourly Weather History & Observations

Time (MST) Temp. Windchill Dew Point Humidity Pressure Visibility Wind Dir Wind Speed Gust Speed Precip Events Conditions
12:53 AM 17.1 °F 4.3 °F 8.1 °F 68% 30.17 in 10.0 mi North 11.5 mph - N/A   Overcast
1:53 AM 18.0 °F 9.8 °F 8.1 °F 65% 30.11 in 10.0 mi NNE 5.8 mph - N/A   Overcast
2:53 AM 18.0 °F 6.9 °F 9.0 °F 68% 30.09 in 10.0 mi ENE 9.2 mph - N/A   Overcast
3:53 AM 17.1 °F 7.6 °F 8.1 °F 68% 30.06 in 10.0 mi ENE 6.9 mph - N/A   Overcast
4:53 AM 18.0 °F 12.7 °F 8.1 °F 65% 30.11 in 10.0 mi NE 3.5 mph - N/A   Overcast
5:53 AM 18.0 °F 11.1 °F 9.0 °F 68% 30.16 in 10.0 mi SW 4.6 mph - N/A   Overcast
6:53 AM 18.0 °F 9.8 °F 12.0 °F 78% 30.18 in 10.0 mi SW 5.8 mph - N/A   Overcast
7:53 AM 18.0 °F 11.1 °F 10.9 °F 74% 30.20 in 10.0 mi SSW 4.6 mph - N/A   Mostly Cloudy
8:04 AM 19.0 °F 11.1 °F 12.0 °F 74% 30.10 in 10.0 mi SSW 5.8 mph - N/A   Scattered Clouds
8:53 AM 21.0 °F 16.2 °F 12.9 °F 71% 30.19 in 10.0 mi Variable 3.5 mph - N/A   Clear
9:53 AM 26.1 °F 21.9 °F 14.0 °F 60% 30.15 in 10.0 mi Variable 3.5 mph - N/A   Clear
10:53 AM 32.0 °F 25.6 °F 15.1 °F 50% 30.09 in 10.0 mi SW 6.9 mph - N/A   Clear
11:53 AM 37.0 °F 34.5 °F 15.1 °F 41% 30.03 in 10.0 mi Variable 3.5 mph - N/A   Clear
12:53 PM 43.0 °F 39.5 °F 16.0 °F 34% 29.95 in 10.0 mi SSE 5.8 mph - N/A   Clear
1:53 PM 50.0 °F - 16.0 °F 26% 29.89 in 10.0 mi NE 8.1 mph - N/A   Partly Cloudy
2:53 PM 57.0 °F - 17.1 °F 21% 29.86 in 10.0 mi NNE 13.8 mph - N/A   Partly Cloudy
3:53 PM 54.0 °F - 19.0 °F 25% 29.89 in 10.0 mi East 16.1 mph - N/A   Clear
4:53 PM 50.0 °F - 18.0 °F 28% 29.93 in 10.0 mi East 17.3 mph - N/A   Clear
5:53 PM 42.1 °F 37.1 °F 16.0 °F 35% 29.99 in 10.0 mi East 8.1 mph - N/A   Clear
6:53 PM 37.9 °F 33.5 °F 15.1 °F 39% 30.04 in 10.0 mi NE 5.8 mph - N/A   Clear
7:53 PM 32.0 °F 23.6 °F 14.0 °F 48% 30.10 in 10.0 mi WSW 10.4 mph - N/A   Clear
8:53 PM 30.9 °F 22.8 °F 16.0 °F 54% 30.10 in 10.0 mi WSW 9.2 mph - N/A   Partly Cloudy
9:53 PM 30.0 °F 23.2 °F 16.0 °F 56% 30.09 in 10.0 mi SSW 6.9 mph - N/A   Mostly Cloudy
10:53 PM 32.0 °F - 17.1 °F 54% 30.04 in 10.0 mi Calm Calm - N/A   Clear
11:53 PM 24.1 °F 16.0 °F 14.0 °F 65% 30.03 in 10.0 mi NNE 6.9 mph - N/A   Clear